Weather in Novlyanka

Russia / Vladimir Oblast     55°47′50″N   41°44′30″E
temp.,
°C
wind,
m/s
gust,
m/s
humid.,
%
clouds,
%
prec.,
mm/h
press.,
hPa
HPBL,
m
6 august, fri
fri600:00+18se2758100 0.0 1015168
03:00+18se3862100 0.1 1014195
06:00+16sse4982100 0.3 1015255
09:00+19s4877100 0.7 1015386
12:00+22sse366379 0.1 1015756
15:00+25sse2449100 0.1 10131133
18:00+17ne4795100 0.8 1014143
21:00+16ene41093100 0.9 1013238
7 august, sat
sat700:00+17e498986 0.0 1012228
03:00+16se348645 0.3 101265
06:00+17se37865 1.5 1012147
09:00+23s485276 1.6 1012559
12:00+29s573457 0.1 10121166
15:00+29s68325 0.1 10121083
18:00+25sse374594 0.0 1013242
21:00+21sse2462100 0.0 101375
8 august, sun
sun800:00+22se4125499 0.0 1014320
03:00+22sse4135249 0.0 1014371
06:00+20sse31156100 0.0 1015253
09:00+26sse474099 0.0 1015435
12:00+30sse572875 0.0 10151088
15:00+32s5725100 0.0 10151986
18:00+26nw2349100 0.0 1015107
21:00+21nw2361100 0.0 101753
9 august, mon
mon900:00+20n2272100 0.0 101736
03:00+20ene1176100 0.0 101817
06:00+20nnw238032 0.0 101980
09:00+24nw115513 0.0 1019362
12:00+29sw34405 0.0 10191456
15:00+31w35355 0.0 10182149
18:00+29wnw2444100 0.0 1018418
21:00+22nw2270100 0.4 101917
10 august, tue
tue1000:00+20nne0180100 0.7 101911
03:00+19nw1185100 1.4 101913
06:00+19nnw2286100 0.5 102053
09:00+19ne3783100 0.5 1019123
12:00+22ne127094 0.0 1019159
15:00+26nw3251100 0.0 1019833
18:00+21nnw4975100 0.0 1018297
21:00+19n3891100 0.4 1018219